MXA5 MMMY-MMGL

Flight info

Callsign MXA5
Flight time 1h 11m
Altitude 34000
Route URTOB1A URTOB UJ11 MEZCA MEZCA1B
Aircraft A20N/M-SDE2E3FGHIRWXY/LB1

Departure

Time 2026-04-22 01:46
Airport Monterrey International Airport (MMMY)

Arrival

Time 2026-04-22 02:57
Airport Guadalajara International Airport (MMGL)
Time Latitude Longitude Altitude Speed Heading
2026-04-22 01:24 25.77905 -100.11391 1277 ft 0 kts 211°
2026-04-22 01:37 25.77911 -100.11387 1278 ft 1 kts 211°
2026-04-22 01:37 25.77918 -100.11383 1278 ft 1 kts 211°
2026-04-22 01:37 25.77924 -100.11378 1278 ft 1 kts 211°
2026-04-22 01:37 25.77936 -100.11371 1277 ft 2 kts 211°
2026-04-22 01:38 25.77948 -100.11362 1277 ft 2 kts 211°
2026-04-22 01:38 25.77961 -100.11353 1278 ft 2 kts 213°
2026-04-22 01:38 25.77972 -100.11342 1277 ft 2 kts 244°
2026-04-22 01:38 25.77976 -100.11327 1277 ft 2 kts 276°
2026-04-22 01:39 25.77976 -100.11321 1277 ft 0 kts 288°
2026-04-22 01:40 25.77977 -100.11324 1277 ft 1 kts 289°
2026-04-22 01:40 25.77989 -100.11355 1277 ft 8 kts 296°
2026-04-22 01:41 25.78024 -100.11421 1279 ft 11 kts 301°
2026-04-22 01:41 25.78070 -100.11500 1280 ft 13 kts 304°
2026-04-22 01:41 25.78122 -100.11585 1282 ft 14 kts 304°
2026-04-22 01:41 25.78172 -100.11679 1283 ft 15 kts 300°
2026-04-22 01:42 25.78221 -100.11774 1285 ft 13 kts 302°
2026-04-22 01:42 25.78300 -100.11788 1287 ft 13 kts 24°
2026-04-22 01:42 25.78321 -100.11776 1287 ft 0 kts 29°
2026-04-22 01:43 25.78322 -100.11776 1287 ft 0 kts 29°
2026-04-22 01:43 25.78335 -100.11767 1288 ft 6 kts 29°
2026-04-22 01:43 25.78380 -100.11734 1288 ft 9 kts 34°
2026-04-22 01:43 25.78389 -100.11661 1288 ft 12 kts 113°
2026-04-22 01:44 25.78379 -100.11641 1287 ft 0 kts 121°
2026-04-22 01:45 25.78374 -100.11631 1287 ft 8 kts 121°
2026-04-22 01:45 25.78216 -100.11340 1282 ft 80 kts 122°
2026-04-22 01:45 25.77817 -100.10617 1272 ft 137 kts 121°
2026-04-22 01:46 25.77251 -100.09605 1480 ft 162 kts 121°
2026-04-22 01:46 25.76664 -100.08547 2288 ft 162 kts 120°
2026-04-22 01:46 25.76075 -100.07474 2912 ft 165 kts 121°
2026-04-22 01:46 25.75425 -100.06357 3333 ft 179 kts 122°
2026-04-22 01:47 25.74723 -100.05185 3881 ft 190 kts 131°
2026-04-22 01:47 25.73548 -100.04371 4186 ft 215 kts 165°
2026-04-22 01:47 25.71969 -100.04437 4555 ft 245 kts 195°
2026-04-22 01:47 25.70459 -100.05500 5005 ft 270 kts 224°
2026-04-22 01:48 25.69247 -100.07110 5800 ft 272 kts 226°
2026-04-22 01:48 25.67966 -100.08649 6714 ft 271 kts 224°
2026-04-22 01:48 25.66660 -100.10158 7550 ft 272 kts 224°
2026-04-22 01:48 25.65342 -100.11686 8310 ft 275 kts 225°
2026-04-22 01:49 25.64041 -100.13222 9052 ft 278 kts 226°
2026-04-22 01:49 25.62724 -100.14798 9824 ft 280 kts 226°
2026-04-22 01:49 25.61388 -100.16396 10515 ft 284 kts 227°
2026-04-22 01:49 25.59983 -100.17962 11218 ft 288 kts 218°
2026-04-22 01:50 25.58140 -100.18892 11862 ft 299 kts 194°
2026-04-22 01:50 25.56018 -100.19057 12352 ft 315 kts 184°
2026-04-22 01:50 25.53757 -100.19095 12527 ft 335 kts 184°
2026-04-22 01:50 25.51354 -100.19134 12736 ft 354 kts 184°
2026-04-22 01:51 25.48865 -100.19182 13242 ft 360 kts 184°
2026-04-22 01:51 25.46348 -100.19225 13875 ft 363 kts 184°
2026-04-22 01:51 25.43872 -100.19482 14462 ft 361 kts 197°
2026-04-22 01:51 25.41570 -100.20527 15032 ft 356 kts 216°
2026-04-22 01:52 25.39726 -100.22317 15670 ft 353 kts 230°
2026-04-22 01:52 25.38056 -100.24323 16231 ft 355 kts 231°
2026-04-22 01:52 25.36400 -100.26366 16758 ft 359 kts 231°
2026-04-22 01:52 25.34733 -100.28434 17359 ft 360 kts 231°
2026-04-22 01:53 25.33053 -100.30502 17845 ft 364 kts 231°
2026-04-22 01:53 25.31354 -100.32586 18408 ft 366 kts 231°
2026-04-22 01:53 25.29643 -100.34674 19003 ft 367 kts 231°
2026-04-22 01:53 25.27916 -100.36779 19482 ft 371 kts 231°
2026-04-22 01:54 25.26180 -100.38900 20039 ft 373 kts 231°
2026-04-22 01:54 25.24433 -100.41035 20624 ft 375 kts 231°
2026-04-22 01:54 25.22684 -100.43190 21070 ft 378 kts 231°
2026-04-22 01:54 25.20935 -100.45328 21641 ft 380 kts 231°
2026-04-22 01:55 25.19151 -100.47507 22027 ft 383 kts 231°
2026-04-22 01:55 25.17358 -100.49684 22131 ft 383 kts 231°
2026-04-22 01:55 25.15559 -100.51861 22149 ft 384 kts 231°
2026-04-22 01:55 25.13753 -100.54044 22213 ft 387 kts 231°
2026-04-22 01:56 25.11944 -100.56245 22767 ft 387 kts 231°
2026-04-22 01:56 25.10133 -100.58451 23353 ft 387 kts 231°
2026-04-22 01:56 25.08325 -100.60675 23800 ft 390 kts 234°
2026-04-22 01:56 25.06912 -100.63203 24276 ft 385 kts 249°
2026-04-22 01:57 25.06308 -100.65042 24571 ft 385 kts 254°
2026-04-22 01:57 25.05234 -100.68793 25212 ft 387 kts 255°
2026-04-22 01:57 25.04428 -100.71637 25661 ft 389 kts 255°
2026-04-22 01:57 25.03624 -100.74487 26118 ft 390 kts 255°
2026-04-22 01:58 25.03077 -100.76422 26409 ft 391 kts 255°
2026-04-22 01:58 25.02265 -100.79293 26816 ft 393 kts 255°
2026-04-22 01:58 25.01460 -100.82140 27206 ft 395 kts 255°
2026-04-22 01:58 25.00638 -100.85039 27618 ft 396 kts 255°
2026-04-22 01:59 24.99809 -100.87955 28016 ft 399 kts 255°
2026-04-22 01:59 24.98943 -100.90865 28421 ft 401 kts 250°
2026-04-22 01:59 24.97595 -100.93579 28769 ft 408 kts 237°
2026-04-22 01:59 24.95662 -100.95912 29113 ft 416 kts 225°
2026-04-22 02:00 24.93249 -100.97740 29427 ft 427 kts 214°
2026-04-22 02:00 24.90582 -100.99229 29741 ft 431 kts 212°
2026-04-22 02:00 24.87898 -101.00709 30054 ft 431 kts 214°
2026-04-22 02:00 24.85259 -101.02280 30363 ft 432 kts 215°
2026-04-22 02:01 24.82658 -101.03936 30691 ft 431 kts 217°
2026-04-22 02:01 24.80150 -101.05594 31464 ft 418 kts 217°
2026-04-22 02:01 24.77707 -101.07231 32392 ft 405 kts 217°
2026-04-22 02:01 24.75320 -101.08845 32936 ft 400 kts 217°
2026-04-22 02:02 24.72966 -101.10440 33484 ft 393 kts 217°
2026-04-22 02:02 24.70650 -101.12008 33937 ft 390 kts 217°
2026-04-22 02:02 24.68345 -101.13567 34130 ft 388 kts 217°
2026-04-22 02:02 24.66048 -101.15121 34172 ft 388 kts 217°
2026-04-22 02:03 24.61461 -101.18217 34167 ft 386 kts 217°
2026-04-22 02:03 24.56870 -101.21311 34165 ft 387 kts 217°
2026-04-22 02:04 24.50009 -101.25926 34185 ft 386 kts 217°
2026-04-22 02:05 24.45416 -101.29012 34190 ft 388 kts 217°
2026-04-22 02:05 24.40806 -101.32106 34200 ft 388 kts 217°
2026-04-22 02:06 24.36215 -101.35186 34207 ft 388 kts 217°
2026-04-22 02:06 24.31596 -101.38282 34224 ft 389 kts 217°
2026-04-22 02:07 24.26976 -101.41375 34220 ft 389 kts 217°
2026-04-22 02:07 24.22357 -101.44467 34215 ft 389 kts 217°
2026-04-22 02:08 24.17720 -101.47528 34207 ft 390 kts 214°
2026-04-22 02:08 24.12688 -101.49897 34225 ft 399 kts 204°
2026-04-22 02:09 24.07379 -101.51709 34224 ft 398 kts 204°
2026-04-22 02:09 24.02130 -101.53524 34200 ft 397 kts 204°
2026-04-22 02:10 23.96860 -101.55347 34192 ft 397 kts 204°
2026-04-22 02:10 23.91603 -101.57162 34212 ft 396 kts 204°
2026-04-22 02:11 23.86342 -101.58977 34211 ft 396 kts 204°
2026-04-22 02:11 23.81070 -101.60793 34228 ft 396 kts 204°
2026-04-22 02:12 23.75806 -101.62606 34221 ft 397 kts 204°
2026-04-22 02:12 23.70534 -101.64419 34230 ft 397 kts 204°
2026-04-22 02:13 23.65290 -101.66221 34227 ft 398 kts 204°
2026-04-22 02:13 23.60005 -101.68039 34236 ft 398 kts 204°
2026-04-22 02:14 23.54753 -101.69837 34247 ft 393 kts 204°
2026-04-22 02:14 23.49527 -101.71630 34258 ft 395 kts 204°
2026-04-22 02:15 23.44292 -101.73426 34257 ft 394 kts 204°
2026-04-22 02:15 23.39077 -101.75214 34257 ft 395 kts 204°
2026-04-22 02:16 23.33831 -101.77009 34259 ft 395 kts 204°
2026-04-22 02:16 23.28583 -101.78799 34257 ft 395 kts 204°
2026-04-22 02:17 23.23329 -101.80592 34259 ft 396 kts 204°
2026-04-22 02:17 23.18065 -101.82385 34261 ft 397 kts 204°
2026-04-22 02:18 23.12823 -101.84173 34278 ft 397 kts 204°
2026-04-22 02:18 23.07546 -101.85969 34278 ft 398 kts 203°
2026-04-22 02:19 23.02250 -101.87769 34282 ft 399 kts 203°
2026-04-22 02:19 22.96944 -101.89573 34286 ft 399 kts 203°
2026-04-22 02:20 22.91661 -101.91367 34285 ft 400 kts 203°
2026-04-22 02:20 22.86338 -101.93174 34284 ft 401 kts 203°
2026-04-22 02:21 22.81000 -101.94983 34287 ft 402 kts 203°
2026-04-22 02:21 22.75653 -101.96793 34288 ft 403 kts 203°
2026-04-22 02:22 22.70325 -101.98597 34292 ft 403 kts 202°
2026-04-22 02:22 22.64960 -102.00411 34295 ft 404 kts 202°
2026-04-22 02:23 22.59580 -102.02229 34308 ft 405 kts 202°
2026-04-22 02:23 22.54189 -102.04048 34314 ft 406 kts 202°
2026-04-22 02:24 22.48796 -102.05866 34310 ft 406 kts 202°
2026-04-22 02:24 22.43409 -102.07683 34299 ft 405 kts 202°
2026-04-22 02:25 22.38007 -102.09502 34296 ft 405 kts 202°
2026-04-22 02:25 22.32652 -102.11303 34291 ft 405 kts 202°
2026-04-22 02:26 22.27234 -102.13125 34288 ft 405 kts 202°
2026-04-22 02:26 22.21889 -102.14922 34289 ft 406 kts 202°
2026-04-22 02:27 22.16489 -102.16736 34295 ft 407 kts 202°
2026-04-22 02:27 22.11082 -102.18548 34301 ft 407 kts 202°
2026-04-22 02:28 22.05673 -102.20362 34309 ft 407 kts 202°
2026-04-22 02:28 22.00256 -102.22177 34310 ft 407 kts 202°
2026-04-22 02:29 21.94881 -102.23976 34302 ft 407 kts 202°
2026-04-22 02:29 21.89463 -102.25788 34301 ft 407 kts 202°
2026-04-22 02:30 21.84049 -102.27596 34311 ft 407 kts 202°
2026-04-22 02:30 21.78628 -102.29406 34309 ft 407 kts 202°
2026-04-22 02:31 21.73318 -102.31363 34296 ft 390 kts 208°
2026-04-22 02:31 21.70932 -102.32608 34303 ft 371 kts 213°
2026-04-22 02:31 21.68775 -102.34000 34299 ft 354 kts 218°
2026-04-22 02:32 21.64859 -102.37199 34298 ft 361 kts 222°
2026-04-22 02:32 21.60907 -102.40544 34299 ft 360 kts 222°
2026-04-22 02:33 21.56959 -102.43865 34301 ft 361 kts 222°
2026-04-22 02:33 21.53011 -102.47186 34245 ft 360 kts 222°
2026-04-22 02:33 21.51044 -102.48840 33929 ft 359 kts 222°
2026-04-22 02:34 21.49076 -102.50497 33449 ft 360 kts 222°
2026-04-22 02:34 21.47104 -102.52156 32847 ft 361 kts 222°
2026-04-22 02:34 21.45111 -102.53833 32177 ft 365 kts 222°
2026-04-22 02:34 21.43122 -102.55504 31851 ft 358 kts 223°
2026-04-22 02:35 21.41188 -102.57124 31382 ft 350 kts 223°
2026-04-22 02:35 21.39254 -102.58748 30389 ft 356 kts 223°
2026-04-22 02:35 21.37318 -102.60376 29606 ft 357 kts 223°
2026-04-22 02:35 21.35378 -102.62003 28962 ft 353 kts 223°
2026-04-22 02:36 21.33446 -102.63622 28312 ft 349 kts 222°
2026-04-22 02:36 21.31532 -102.65229 27629 ft 347 kts 222°
2026-04-22 02:36 21.29643 -102.66813 26996 ft 343 kts 222°
2026-04-22 02:36 21.27763 -102.68386 26322 ft 342 kts 222°
2026-04-22 02:37 21.25887 -102.69947 25821 ft 339 kts 221°
2026-04-22 02:37 21.24054 -102.71501 25140 ft 336 kts 222°
2026-04-22 02:37 21.22222 -102.73043 24518 ft 334 kts 221°
2026-04-22 02:37 21.20414 -102.74550 23925 ft 334 kts 221°
2026-04-22 02:38 21.18581 -102.76084 23326 ft 329 kts 221°
2026-04-22 02:38 21.16809 -102.77582 22763 ft 326 kts 220°
2026-04-22 02:38 21.15011 -102.79065 22242 ft 324 kts 220°
2026-04-22 02:38 21.13196 -102.80481 21673 ft 322 kts 211°
2026-04-22 02:39 21.11101 -102.81322 20958 ft 323 kts 192°
2026-04-22 02:39 21.08842 -102.81317 20318 ft 324 kts 174°
2026-04-22 02:39 21.06610 -102.80970 19663 ft 321 kts 174°
2026-04-22 02:39 21.04404 -102.80647 19038 ft 319 kts 174°
2026-04-22 02:40 21.02227 -102.80324 18420 ft 315 kts 174°
2026-04-22 02:40 21.00104 -102.80004 17744 ft 312 kts 173°
2026-04-22 02:40 20.98013 -102.79679 17465 ft 297 kts 174°
2026-04-22 02:40 20.95973 -102.79388 17135 ft 290 kts 174°
2026-04-22 02:41 20.93965 -102.79298 16801 ft 286 kts 190°
2026-04-22 02:41 20.92086 -102.79894 16559 ft 282 kts 202°
2026-04-22 02:41 20.90239 -102.80634 16317 ft 288 kts 201°
2026-04-22 02:41 20.88393 -102.81392 16109 ft 278 kts 203°
2026-04-22 02:42 20.86644 -102.82130 15973 ft 264 kts 203°
2026-04-22 02:42 20.84964 -102.82827 15851 ft 250 kts 203°
2026-04-22 02:42 20.83361 -102.83491 15607 ft 246 kts 204°
2026-04-22 02:42 20.81817 -102.84154 15445 ft 239 kts 203°
2026-04-22 02:43 20.80266 -102.84815 15202 ft 245 kts 202°
2026-04-22 02:43 20.78681 -102.85468 14945 ft 243 kts 202°
2026-04-22 02:43 20.77102 -102.86122 14690 ft 244 kts 203°
2026-04-22 02:43 20.75525 -102.86780 14447 ft 240 kts 203°
2026-04-22 02:44 20.74492 -102.87207 14306 ft 240 kts 203°
2026-04-22 02:44 20.72912 -102.87862 14015 ft 242 kts 203°
2026-04-22 02:44 20.71346 -102.88514 13699 ft 239 kts 203°
2026-04-22 02:44 20.69793 -102.89166 13416 ft 244 kts 204°
2026-04-22 02:45 20.68229 -102.89821 13105 ft 240 kts 202°
2026-04-22 02:45 20.66680 -102.90473 12818 ft 238 kts 203°
2026-04-22 02:45 20.65156 -102.91127 12568 ft 233 kts 204°
2026-04-22 02:45 20.63699 -102.91736 12318 ft 224 kts 203°
2026-04-22 02:46 20.62257 -102.92333 11935 ft 218 kts 203°
2026-04-22 02:46 20.60836 -102.92925 11684 ft 223 kts 204°
2026-04-22 02:46 20.59377 -102.93542 11397 ft 225 kts 203°
2026-04-22 02:46 20.57951 -102.94130 11223 ft 210 kts 203°
2026-04-22 02:47 20.56632 -102.94684 11032 ft 200 kts 203°
2026-04-22 02:47 20.55356 -102.95220 10788 ft 196 kts 203°
2026-04-22 02:47 20.54125 -102.95739 10400 ft 192 kts 202°
2026-04-22 02:47 20.52888 -102.96258 10125 ft 187 kts 203°
2026-04-22 02:48 20.51667 -102.96782 9890 ft 194 kts 202°
2026-04-22 02:48 20.50421 -102.97302 9631 ft 188 kts 201°
2026-04-22 02:48 20.49205 -102.97804 9406 ft 185 kts 201°
2026-04-22 02:48 20.48044 -102.98282 9108 ft 175 kts 202°
2026-04-22 02:49 20.46943 -102.98754 8980 ft 168 kts 201°
2026-04-22 02:49 20.45828 -102.99213 8980 ft 173 kts 201°
2026-04-22 02:49 20.44695 -102.99687 8981 ft 176 kts 200°
2026-04-22 02:49 20.43554 -103.00154 8980 ft 175 kts 200°
2026-04-22 02:50 20.42427 -103.00608 8982 ft 174 kts 200°
2026-04-22 02:50 20.41420 -103.01300 8993 ft 175 kts 227°
2026-04-22 02:50 20.40845 -103.02407 8943 ft 171 kts 252°
2026-04-22 02:50 20.40743 -103.03618 8733 ft 164 kts 276°
2026-04-22 02:51 20.41072 -103.04787 8695 ft 165 kts 294°
2026-04-22 02:51 20.41591 -103.05885 8684 ft 163 kts 295°
2026-04-22 02:51 20.42073 -103.06999 8689 ft 165 kts 293°
2026-04-22 02:51 20.42548 -103.08139 8561 ft 167 kts 293°
2026-04-22 02:52 20.43012 -103.09253 8379 ft 160 kts 293°
2026-04-22 02:52 20.43478 -103.10346 7957 ft 162 kts 294°
2026-04-22 02:52 20.43936 -103.11429 7727 ft 159 kts 293°
2026-04-22 02:52 20.44388 -103.12509 7686 ft 163 kts 293°
2026-04-22 02:53 20.44851 -103.13613 7689 ft 163 kts 293°
2026-04-22 02:53 20.45314 -103.14720 7691 ft 163 kts 293°
2026-04-22 02:53 20.45780 -103.15832 7574 ft 166 kts 293°
2026-04-22 02:53 20.46246 -103.16949 7347 ft 162 kts 292°
2026-04-22 02:54 20.46689 -103.18007 7140 ft 154 kts 291°
2026-04-22 02:54 20.47127 -103.19045 6954 ft 151 kts 291°
2026-04-22 02:54 20.47560 -103.20089 6761 ft 155 kts 291°
2026-04-22 02:54 20.48008 -103.21149 6571 ft 161 kts 293°
2026-04-22 02:55 20.48464 -103.22242 6367 ft 160 kts 293°
2026-04-22 02:55 20.48906 -103.23296 6174 ft 151 kts 290°
2026-04-22 02:55 20.49310 -103.24255 5992 ft 136 kts 289°
2026-04-22 02:55 20.49705 -103.25212 5824 ft 147 kts 290°
2026-04-22 02:56 20.50130 -103.26221 5641 ft 151 kts 291°
2026-04-22 02:56 20.50555 -103.27236 5451 ft 149 kts 290°
2026-04-22 02:56 20.50976 -103.28217 5263 ft 142 kts 290°
2026-04-22 02:56 20.51371 -103.29183 5097 ft 146 kts 290°
2026-04-22 02:57 20.51771 -103.30150 5017 ft 124 kts 295°
2026-04-22 02:57 20.51996 -103.30671 5019 ft 33 kts 295°
2026-04-22 02:57 20.52112 -103.30833 5021 ft 10 kts 330°
2026-04-22 02:57 20.52172 -103.30869 5021 ft 10 kts 330°
2026-04-22 02:58 20.52227 -103.30905 5021 ft 9 kts 327°
2026-04-22 02:58 20.52272 -103.30941 5018 ft 7 kts 321°
2026-04-22 02:58 20.52309 -103.30972 5021 ft 6 kts 322°
2026-04-22 02:58 20.52348 -103.30996 5022 ft 7 kts 346°
2026-04-22 02:59 20.52402 -103.30979 5019 ft 10 kts 31°
2026-04-22 02:59 20.52441 -103.30909 5021 ft 13 kts 70°
2026-04-22 02:59 20.52472 -103.30812 5020 ft 14 kts 71°
2026-04-22 02:59 20.52507 -103.30712 5020 ft 14 kts 69°
2026-04-22 03:00 20.52542 -103.30616 5014 ft 14 kts 69°
2026-04-22 03:00 20.52529 -103.30555 5019 ft 6 kts 140°
2026-04-22 03:00 20.52494 -103.30531 5020 ft 6 kts 147°
2026-04-22 03:00 20.52445 -103.30496 5020 ft 11 kts 145°
2026-04-22 03:01 20.52425 -103.30426 5017 ft 10 kts 57°
2026-04-22 03:01 20.52463 -103.30377 5018 ft 4 kts 85°
2026-04-22 03:01 20.52454 -103.30350 5019 ft 7 kts 108°
2026-04-22 03:01 20.52439 -103.30300 5019 ft 0 kts 105°
2026-04-22 03:02 20.52439 -103.30291 5019 ft 4 kts 88°
2026-04-22 03:02 20.52458 -103.30270 5019 ft 4 kts 15°
2026-04-22 03:02 20.52487 -103.30259 5019 ft 0 kts 16°